Siloam Springs, AR

3:27 PM CDT on September 20, 2017 (GMT -0500)
Smith

Weather History for KSLG - March, 2013

Change the Weather History Date:

Saturday, March 16, 2013

  Actual Average Record
Temperature  
Mean Temperature 63 °F -  
Max Temperature 75 °F 54 °F 77 °F (2012)
Min Temperature 51 °F 36 °F 28 °F (1997)
Degree Days  
Heating Degree Days 2    
Growing Degree Days 13 (Base 50)    
Moisture  
Dew Point 43 °F    
Average Humidity 50    
Maximum Humidity 67    
Minimum Humidity 41    
Precipitation  
Precipitation 0.00 in - - ()
Sea Level Pressure  
Sea Level Pressure 29.83 in    
Wind  
Wind Speed 10 mph (South)    
Max Wind Speed 21 mph    
Max Gust Speed 23 mph    
Visibility 10 miles    
Events      
Averages and records for this station are not official NWS values.
T = Trace of Precipitation, MM = Missing Value Source: NWS Daily Summary

Daily Weather History Graph

Daily Weather History Graph

Search for Another Location

Airport or City:

Trip Planner

Search our weather history database for the weather conditions in past years. The results will help you decide how hot, cold, wet, or windy it might be!

Date:

Astronomy

Mar. 16, 2013 Rise Set
Actual Time 7:26 AM CDT 7:26 PM CDT
Civil Twilight 7:01 AM CDT 7:52 PM CDT
Nautical Twilight 6:31 AM CDT 8:22 PM CDT
Astronomical Twilight 6:01 AM CDT 8:52 PM CDT
Moon 10:06 AM CDT (3/16) No Moon Set
Length of Visible Light 12h 50m
Length of Day
11h 59m
Waxing Crescent, 23% of the Moon is Illuminated
Mar 16
Waxing Crescent
Mar 19
First Quarter
Mar 27
Full
Apr 2
Last Quarter
Apr 10
New

Hourly Weather History & Observations

Time (CDT) Temp. Dew Point Humidity Pressure Visibility Wind Dir Wind Speed Gust Speed Precip Events Conditions
12:55 AM 62.6 °F 42.8 °F 48% 29.81 in 10.0 mi South 20.7 mph - N/A   Clear
1:35 AM 62.6 °F 41.0 °F 45% 29.81 in 10.0 mi South 13.8 mph - N/A   Clear
1:55 AM 62.6 °F 41.0 °F 45% 29.81 in 10.0 mi SSW 15.0 mph 20.7 mph N/A   Clear
2:15 AM 62.6 °F 41.0 °F 45% 29.82 in 10.0 mi SSW 11.5 mph 17.3 mph N/A   Clear
2:35 AM 60.8 °F 39.2 °F 45% 29.81 in 10.0 mi SSW 10.4 mph 17.3 mph N/A   Clear
2:55 AM 60.8 °F 39.2 °F 45% 29.81 in 10.0 mi SSW 10.4 mph - N/A   Clear
3:15 AM 60.8 °F 39.2 °F 45% 29.81 in 10.0 mi SSW 10.4 mph - N/A   Clear
3:35 AM 60.8 °F 39.2 °F 45% 29.81 in 10.0 mi SSW 10.4 mph - N/A   Clear
3:55 AM 60.8 °F 39.2 °F 45% 29.80 in 10.0 mi SSW 8.1 mph - N/A   Clear
4:15 AM 59.0 °F 39.2 °F 48% 29.80 in 10.0 mi SSW 8.1 mph - N/A   Clear
4:35 AM 57.2 °F 39.2 °F 51% 29.80 in 10.0 mi SSW 6.9 mph - N/A   Clear
4:55 AM 57.2 °F 39.2 °F 51% 29.80 in 10.0 mi South 6.9 mph - N/A   Clear
5:15 AM 55.4 °F 39.2 °F 54% 29.80 in 10.0 mi South 9.2 mph - N/A   Clear
5:35 AM 55.4 °F 39.2 °F 54% 29.81 in 10.0 mi South 9.2 mph - N/A   Clear
5:55 AM 55.4 °F 39.2 °F 54% 29.80 in 10.0 mi South 10.4 mph - N/A   Clear
6:15 AM 55.4 °F 41.0 °F 58% 29.81 in 10.0 mi South 9.2 mph - N/A   Clear
6:35 AM 55.4 °F 41.0 °F 58% 29.81 in 10.0 mi South 8.1 mph - N/A   Clear
6:55 AM 55.4 °F 41.0 °F 58% 29.81 in 10.0 mi South 10.4 mph - N/A   Clear
7:15 AM 53.6 °F 41.0 °F 62% 29.85 in 10.0 mi NNW 5.8 mph - N/A   Clear
7:35 AM 53.6 °F 39.2 °F 58% 29.87 in 10.0 mi North 8.1 mph - N/A   Clear
7:55 AM 53.6 °F 41.0 °F 62% 29.87 in 10.0 mi NNE 5.8 mph - N/A   Clear
8:15 AM 53.6 °F 42.8 °F 67% 29.86 in 10.0 mi SE 3.5 mph - N/A   Clear
8:35 AM 55.4 °F 44.6 °F 67% 29.87 in 10.0 mi SE 3.5 mph - N/A   Clear
8:55 AM 60.8 °F 44.6 °F 55% 29.87 in 10.0 mi SSE 4.6 mph - N/A   Clear
9:15 AM 62.6 °F 44.6 °F 52% 29.88 in 10.0 mi SSE 4.6 mph - N/A   Clear
9:35 AM 64.4 °F 44.6 °F 49% 29.87 in 10.0 mi South 6.9 mph - N/A   Clear
9:55 AM 64.4 °F 44.6 °F 49% 29.87 in 10.0 mi SSE 8.1 mph - N/A   Clear
10:15 AM 64.4 °F 46.4 °F 52% 29.87 in 10.0 mi South 5.8 mph - N/A   Clear
10:35 AM 66.2 °F 46.4 °F 49% 29.87 in 10.0 mi SSW 5.8 mph - N/A   Clear
10:55 AM 66.2 °F 46.4 °F 49% 29.87 in 10.0 mi SW 9.2 mph - N/A   Clear
11:15 AM 68.0 °F 46.4 °F 46% 29.88 in 10.0 mi WSW 6.9 mph - N/A   Clear
11:35 AM 68.0 °F 46.4 °F 46% 29.87 in 10.0 mi SSW 9.2 mph - N/A   Clear
11:55 AM 69.8 °F 48.2 °F 46% 29.87 in 10.0 mi South 5.8 mph - N/A   Clear
12:15 PM 69.8 °F 48.2 °F 46% 29.87 in 10.0 mi South 8.1 mph - N/A   Clear
12:35 PM 71.6 °F 48.2 °F 43% 29.87 in 10.0 mi ESE 4.6 mph - N/A   Clear
12:55 PM 71.6 °F 48.2 °F 43% 29.86 in 10.0 mi Calm Calm - N/A   Clear
1:15 PM 71.6 °F 48.2 °F 43% 29.85 in 10.0 mi South 4.6 mph - N/A   Clear
1:35 PM 71.6 °F 48.2 °F 43% 29.85 in 10.0 mi WNW 4.6 mph - N/A   Partly Cloudy
1:55 PM 71.6 °F 48.2 °F 43% 29.84 in 10.0 mi West 3.5 mph - N/A   Clear
2:15 PM 73.4 °F 48.2 °F 41% 29.83 in 10.0 mi West 3.5 mph - N/A   Clear
2:35 PM 73.4 °F 48.2 °F 41% 29.82 in 10.0 mi South 6.9 mph - N/A   Clear
2:55 PM 73.4 °F 48.2 °F 41% 29.80 in 10.0 mi SW 3.5 mph - N/A   Clear
3:15 PM 73.4 °F 48.2 °F 41% 29.80 in 10.0 mi South 6.9 mph - N/A   Clear
3:35 PM 73.4 °F 48.2 °F 41% 29.78 in 10.0 mi SSE 5.8 mph - N/A   Clear
3:55 PM 73.4 °F 48.2 °F 41% 29.78 in 10.0 mi South 3.5 mph - N/A   Clear
4:15 PM 75.2 °F 50.0 °F 41% 29.78 in 10.0 mi WSW 5.8 mph - N/A   Clear
4:35 PM 75.2 °F 50.0 °F 41% 29.78 in 10.0 mi South 6.9 mph - N/A   Clear
4:55 PM 73.4 °F 48.2 °F 41% 29.77 in 10.0 mi SW 3.5 mph - N/A   Clear
5:15 PM 73.4 °F 48.2 °F 41% 29.77 in 10.0 mi South 5.8 mph - N/A   Clear
5:35 PM 73.4 °F 48.2 °F 41% 29.77 in 10.0 mi SSW 4.6 mph - N/A   Clear
5:55 PM 73.4 °F 48.2 °F 41% 29.77 in 10.0 mi SSW 3.5 mph - N/A   Clear
6:15 PM 66.2 °F 44.6 °F 46% 29.78 in 10.0 mi NNE 16.1 mph - N/A   Mostly Cloudy
6:35 PM 64.4 °F 44.6 °F 49% 29.79 in 10.0 mi NNE 16.1 mph 23.0 mph N/A   Overcast
6:55 PM 62.6 °F 42.8 °F 48% 29.80 in 10.0 mi NNE 10.4 mph - N/A   Mostly Cloudy
7:15 PM 60.8 °F 42.8 °F 52% 29.81 in 10.0 mi NNE 11.5 mph - N/A   Mostly Cloudy
7:35 PM 59.0 °F 42.8 °F 55% 29.82 in 10.0 mi North 12.7 mph - N/A   Mostly Cloudy
7:55 PM 57.2 °F 41.0 °F 55% 29.82 in 10.0 mi North 12.7 mph - N/A   Mostly Cloudy
8:15 PM 55.4 °F 39.2 °F 54% 29.83 in 10.0 mi NNE 12.7 mph 20.7 mph N/A   Mostly Cloudy
8:35 PM 55.4 °F 39.2 °F 54% 29.84 in 9.0 mi NNE 11.5 mph - N/A   Mostly Cloudy
8:55 PM 55.4 °F 39.2 °F 54% 29.84 in 8.0 mi NE 10.4 mph - N/A   Mostly Cloudy
9:15 PM 53.6 °F 39.2 °F 58% 29.85 in 8.0 mi NE 11.5 mph 17.3 mph N/A   Overcast
9:35 PM 53.6 °F 39.2 °F 58% 29.86 in 8.0 mi NNE 10.4 mph - N/A   Overcast
9:55 PM 53.6 °F 39.2 °F 58% 29.86 in 7.0 mi ENE 12.7 mph - N/A   Overcast
10:15 PM 53.6 °F 39.2 °F 58% 29.86 in 8.0 mi ENE 11.5 mph - N/A   Overcast
10:35 PM 53.6 °F 37.4 °F 54% 29.86 in 8.0 mi ENE 9.2 mph - N/A   Overcast
10:55 PM 53.6 °F 37.4 °F 54% 29.86 in 9.0 mi NE 6.9 mph - N/A   Overcast
11:15 PM 53.6 °F 37.4 °F 54% 29.86 in 8.0 mi NE 6.9 mph - N/A   Overcast
11:35 PM 51.8 °F 37.4 °F 58% 29.86 in 10.0 mi ENE 9.2 mph - N/A   Overcast
11:55 PM 53.6 °F 37.4 °F 54% 29.85 in 10.0 mi ENE 11.5 mph 16.1 mph N/A   Overcast